Location: Burgwalden
(48.2830°N, 10.7576°E)
Time: 01:17:36
(UTC+00:00)

Cosmos 1812 Rocket - Pass Details

Date: 26 September 2023
Orbit: 603 x 629 km, 82.5° (Epoch: 04 December)

Event Time Altitude Azimuth Distance (km) Brightness Sun altitude
Exits shadow 02:48:04 37° 324° (NW) 994 4.5 -23.4°
Drops below altitude 10° 02:51:15 10° 358° (N) 2,021 6.5 -22.9°
Sets 02:53:35 0° 5° (N) 2,932 7.4 -22.6°
